Location: Axtheid
(49.6213°N, 11.8205°E)
Time: 23:12:54
(UTC+00:00)

PAYLOAD A - Pass Details

Date: 18 February 2020
Orbit: 693 x 831 km, 98.3° (Epoch: 09 April)

Event Time Altitude Azimuth Distance (km) Brightness Sun altitude
Rises 03:27:30 0° 14° (NNE) 3,126 7.5 -28.1°
Reaches altitude 10° 03:29:45 10° 16° (NNE) 2,217 6.7 -27.8°
Enters shadow 03:34:33 82° 85° (E) 751 3.9 -27.0°
